| time (UTC) | temp F | wind direction | speed MPH | gust MPH | rain 1hr in | rain 24hr in | rain mn in | humidity % | barometer mb |
| 20260504234424 | 71 | 186 | 0.0 | 0.0 | 0.00 | 0.00 | 0.00 | 40 | 1026.7 |
| 20260504233422 | 71 | 180 | 0.0 | 0.0 | 0.00 | 0.00 | 0.00 | 38 | 1026.7 |
| 20260504232421 | 72 | 180 | 0.0 | 0.0 | 0.00 | 0.00 | 0.00 | 38 | 1026.6 |
| 20260504230421 | 74 | 134 | 0.0 | 0.0 | 0.00 | 0.00 | 0.00 | 34 | 1026.4 |
| 20260504225420 | 75 | 127 | 0.0 | 0.0 | 0.00 | 0.00 | 0.00 | 35 | 1026.4 |
| 20260504223520 | 75 | 174 | 0.0 | 0.0 | 0.00 | 0.00 | 0.00 | 34 | 1026.3 |
| 20260504222522 | 75 | 181 | 0.0 | 0.0 | 0.00 | 0.00 | 0.00 | 33 | 1026.5 |
| 20260504221620 | 76 | 167 | 0.0 | 0.0 | 0.00 | 0.00 | 0.00 | 33 | 1026.4 |
| 20260504221520 | 76 | 183 | 0.0 | 0.0 | 0.00 | 0.00 | 0.00 | 32 | 1026.3 |
| 20260504215620 | 76 | 171 | 0.0 | 0.0 | 0.00 | 0.00 | 0.00 | 33 | 1026.4 |
| 20260504214621 | 76 | 199 | 0.0 | 0.0 | 0.00 | 0.00 | 0.00 | 32 | 1026.5 |
| 20260504213720 | 76 | 160 | 0.0 | 0.0 | 0.00 | 0.00 | 0.00 | 31 | 1026.5 |
| 20260504211722 | 76 | 152 | 0.0 | 0.0 | 0.00 | 0.00 | 0.00 | 31 | 1026.6 |
| 20260504210821 | 76 | 191 | 0.0 | 0.0 | 0.00 | 0.00 | 0.00 | 31 | 1026.7 |
| 20260504205837 | 76 | 214 | 0.0 | 0.0 | 0.00 | 0.00 | 0.00 | 30 | 1026.6 |
| 20260504204921 | 77 | 143 | 0.0 | 0.0 | 0.00 | 0.00 | 0.00 | 30 | 1026.4 |
| 20260504203921 | 76 | 206 | 0.0 | 0.0 | 0.00 | 0.00 | 0.00 | 29 | 1026.4 |
| 20260504201922 | 77 | 142 | 0.0 | 0.0 | 0.00 | 0.00 | 0.00 | 29 | 1026.8 |
| 20260504195922 | 77 | 198 | 0.0 | 0.0 | 0.00 | 0.00 | 0.00 | 30 | 1026.9 |
| 20260504195020 | 76 | 196 | 0.0 | 0.0 | 0.00 | 0.00 | 0.00 | 30 | 1027.0 |
| 20260504194920 | 76 | 151 | 0.0 | 0.0 | 0.00 | 0.00 | 0.00 | 29 | 1027.0 |
| 20260504193920 | 76 | 199 | 0.0 | 0.0 | 0.00 | 0.00 | 0.00 | 29 | 1027.3 |
| 20260504192922 | 76 | 200 | 0.0 | 0.0 | 0.00 | 0.00 | 0.00 | 29 | 1027.3 |
| 20260504192022 | 76 | 192 | 0.0 | 0.0 | 0.00 | 0.00 | 0.00 | 31 | 1027.4 |
| 20260504191022 | 75 | 191 | 0.0 | 0.0 | 0.00 | 0.00 | 0.00 | 30 | 1027.6 |
| 20260504190021 | 75 | 189 | 0.0 | 0.0 | 0.00 | 0.00 | 0.00 | 30 | 1027.9 |
| 20260504185119 | 75 | 198 | 0.0 | 0.0 | 0.00 | 0.00 | 0.00 | 30 | 1028.1 |
| 20260504184123 | 75 | 212 | 0.0 | 0.0 | 0.00 | 0.00 | 0.00 | 30 | 1028.2 |
| 20260504183220 | 74 | 181 | 0.0 | 0.0 | 0.00 | 0.00 | 0.00 | 32 | 1028.3 |
| 20260504182222 | 74 | 183 | 0.0 | 0.0 | 0.00 | 0.00 | 0.00 | 32 | 1028.6 |
| 20260504181321 | 74 | 202 | 0.0 | 0.0 | 0.00 | 0.00 | 0.00 | 31 | 1028.7 |
| 20260504174322 | 73 | 204 | 0.0 | 0.0 | 0.00 | 0.00 | 0.00 | 31 | 1029.0 |
| 20260504173421 | 73 | 190 | 0.0 | 0.0 | 0.00 | 0.00 | 0.00 | 31 | 1029.1 |
| 20260504172421 | 73 | 201 | 0.0 | 0.0 | 0.00 | 0.00 | 0.00 | 32 | 1029.3 |
| 20260504170520 | 72 | 199 | 0.0 | 0.0 | 0.00 | 0.00 | 0.00 | 32 | 1029.7 |
| 20260504151020 | 69 | 189 | 0.0 | 0.0 | 0.00 | 0.00 | 0.00 | 37 | 1030.8 |
| 20260504141221 | 63 | 198 | 0.0 | 0.0 | 0.00 | 0.00 | 0.00 | 44 | 1031.3 |
| 20260504140222 | 63 | 112 | 0.0 | 0.0 | 0.00 | 0.00 | 0.00 | 46 | 1031.1 |
| 20260504130430 | 57 | 123 | 0.0 | 0.0 | 0.00 | 0.00 | 0.00 | 53 | 1031.9 |
| 20260504081919 | 46 | 112 | 0.0 | 0.0 | 0.00 | 0.00 | 0.00 | 78 | 1032.6 |
| 20260504080920 | 46 | 180 | 0.0 | 0.0 | 0.00 | 0.00 | 0.00 | 81 | 1032.4 |
| 20260504060120 | 43 | 112 | 0.0 | 0.0 | 0.00 | 0.00 | 0.00 | 83 | 1032.8 |
| 20260504050320 | 41 | 112 | 0.0 | 0.0 | 0.00 | 0.00 | 0.00 | 83 | 1032.7 |
| 20260504045323 | 41 | 112 | 0.0 | 0.0 | 0.00 | 0.00 | 0.00 | 82 | 1032.6 |
| 20260504044420 | 41 | 112 | 0.0 | 0.0 | 0.00 | 0.00 | 0.00 | 83 | 1032.5 |
| 20260504043419 | 40 | 112 | 0.0 | 0.0 | 0.00 | 0.00 | 0.00 | 83 | 1032.5 |
| 20260504042437 | 40 | 112 | 0.0 | 0.0 | 0.00 | 0.00 | 0.00 | 82 | 1032.3 |
| 20260504041419 | 40 | 112 | 0.0 | 0.0 | 0.00 | 0.00 | 0.00 | 81 | 1032.4 |
| 20260504040419 | 40 | 112 | 0.0 | 0.0 | 0.00 | 0.00 | 0.00 | 81 | 1032.6 |
| 20260504035425 | 40 | 112 | 0.0 | 0.0 | 0.00 | 0.00 | 0.00 | 81 | 1032.6 |
| 20260504034424 | 40 | 112 | 0.0 | 0.0 | 0.00 | 0.00 | 0.00 | 79 | 1032.4 |
| 20260504033524 | 40 | 112 | 0.0 | 0.0 | 0.00 | 0.00 | 0.00 | 79 | 1032.5 |
| 20260504032526 | 40 | 112 | 0.0 | 0.0 | 0.00 | 0.00 | 0.00 | 78 | 1032.4 |
| 20260504031525 | 40 | 112 | 0.0 | 0.0 | 0.00 | 0.00 | 0.00 | 78 | 1032.4 |
| 20260504030527 | 40 | 112 | 0.0 | 0.0 | 0.00 | 0.00 | 0.00 | 78 | 1032.3 |
| 20260504025525 | 39 | 112 | 0.0 | 0.0 | 0.00 | 0.00 | 0.00 | 77 | 1032.1 |
| 20260504024525 | 39 | 112 | 0.0 | 0.0 | 0.00 | 0.00 | 0.00 | 76 | 1032.2 |
| 20260504023525 | 40 | 112 | 0.0 | 0.0 | 0.00 | 0.00 | 0.00 | 75 | 1032.3 |
| 20260504023425 | 40 | 112 | 0.0 | 0.0 | 0.00 | 0.00 | 0.00 | 75 | 1032.3 |
| 20260504022426 | 40 | 112 | 0.0 | 0.0 | 0.00 | 0.00 | 0.00 | 73 | 1032.3 |
| 20260504020441 | 41 | 112 | 0.0 | 0.0 | 0.00 | 0.00 | 0.00 | 69 | 1032.1 |
| 20260504015527 | 42 | 112 | 0.0 | 0.0 | 0.00 | 0.00 | 0.00 | 67 | 1032.1 |
| 20260504013526 | 44 | 112 | 0.0 | 0.0 | 0.00 | 0.00 | 0.00 | 66 | 1032.0 |
| 20260504012524 | 43 | 206 | 0.0 | 0.0 | 0.00 | 0.00 | 0.00 | 66 | 1032.0 |
| 20260504010525 | 44 | 180 | 0.0 | 0.0 | 0.00 | 0.00 | 0.00 | 65 | 1031.7 |
| 20260504005623 | 45 | 180 | 0.0 | 0.0 | 0.00 | 0.00 | 0.00 | 62 | 1031.8 |
| 20260504003624 | 48 | 202 | 0.0 | 0.0 | 0.00 | 0.00 | 0.00 | 56 | 1031.6 |
| 20260504002624 | 50 | 202 | 0.0 | 0.0 | 0.00 | 0.00 | 0.00 | 52 | 1031.6 |
| 20260504001723 | 52 | 202 | 0.0 | 0.0 | 0.00 | 0.00 | 0.00 | 50 | 1031.7 |
| 20260504000725 | 52 | 202 | 0.0 | 0.0 | 0.00 | 0.00 | 0.00 | 48 | 1031.5 |
| 20260503235725 | 54 | 202 | 0.0 | 0.0 | 0.00 | 0.00 | 0.00 | 44 | 1031.4 |